Time,TemperatureF,DewpointF,PressureIn,WindDirection,WindDirectionDegrees,WindSpeedMPH,WindSpeedGustMPH,Humidity,HourlyPrecipIn,Conditions,Clouds,dailyrainin,SoftwareType,DateUTC
2013-03-26 00:00:00,36.0,27.2,29.54,North,360,0.0,6.0,70,0.00,,BKN055,0.00,VWS V14.01,2013-03-26 04:00:00,
2013-03-26 00:10:00,37.0,27.8,29.54,NNE,22,2.0,7.0,69,0.00,,BKN055,0.00,VWS V14.01,2013-03-26 04:10:00,
2013-03-26 00:20:00,37.0,27.8,29.54,North,360,1.0,7.0,69,0.00,,BKN055,0.00,VWS V14.01,2013-03-26 04:20:00,
2013-03-26 00:30:00,37.0,27.4,29.54,NNE,22,0.0,6.0,68,0.00,,BKN055,0.00,VWS V14.01,2013-03-26 04:30:00,
2013-03-26 00:40:00,37.0,27.4,29.54,ENE,67,1.0,7.0,68,0.00,,BKN055,0.00,VWS V14.01,2013-03-26 04:40:00,
2013-03-26 00:50:00,37.0,27.4,29.54,NE,45,1.0,4.0,68,0.00,,BKN055,0.00,VWS V14.01,2013-03-26 04:50:00,
2013-03-26 01:00:00,37.0,27.4,29.54,NNE,22,2.0,3.0,68,0.00,,BKN055,0.00,VWS V14.01,2013-03-26 05:00:00,
2013-03-26 01:10:00,37.0,27.8,29.54,NE,45,1.0,3.0,69,0.00,,BKN055,0.00,VWS V14.01,2013-03-26 05:10:00,
2013-03-26 01:20:00,36.0,26.5,29.54,ENE,67,0.0,3.0,68,0.00,,BKN055,0.00,VWS V14.01,2013-03-26 05:20:00,
2013-03-26 01:30:00,36.0,26.5,29.54,NE,45,2.0,4.0,68,0.00,,BKN055,0.00,VWS V14.01,2013-03-26 05:30:00,
2013-03-26 01:40:00,36.0,26.8,29.54,NE,45,1.0,4.0,69,0.00,,BKN055,0.00,VWS V14.01,2013-03-26 05:40:00,
2013-03-26 01:50:00,36.0,27.2,29.54,ENE,67,0.0,6.0,70,0.00,,BKN055,0.00,VWS V14.01,2013-03-26 05:50:00,
2013-03-26 02:00:00,36.0,27.2,29.54,NE,45,1.0,3.0,70,0.00,,BKN055,0.00,VWS V14.01,2013-03-26 06:00:00,
2013-03-26 02:10:00,36.0,27.5,29.54,NE,45,0.0,5.0,71,0.00,,BKN055,0.00,VWS V14.01,2013-03-26 06:10:00,
2013-03-26 02:20:00,36.0,27.9,29.54,NNW,337,0.0,6.0,72,0.00,,BKN055,0.00,VWS V14.01,2013-03-26 06:20:00,
2013-03-26 02:30:00,35.0,26.9,29.54,NE,45,0.0,4.0,72,0.00,,BKN055,0.00,VWS V14.01,2013-03-26 06:30:00,
2013-03-26 02:40:00,35.0,27.2,29.54,North,360,1.0,3.0,73,0.00,,BKN055,0.00,VWS V14.01,2013-03-26 06:40:00,
2013-03-26 02:50:00,34.0,26.6,29.54,NE,45,0.0,2.0,74,0.00,,BKN055,0.00,VWS V14.01,2013-03-26 06:50:00,
2013-03-26 03:00:00,34.0,26.9,29.54,NW,315,0.0,2.0,75,0.00,,BKN055,0.00,VWS V14.01,2013-03-26 07:00:00,
2013-03-26 03:10:00,33.0,26.6,29.54,West,270,0.0,2.0,77,0.00,,BKN055,0.00,VWS V14.01,2013-03-26 07:10:00,
2013-03-26 03:20:00,33.0,26.9,29.54,NW,315,0.0,1.0,78,0.00,,BKN055,0.00,VWS V14.01,2013-03-26 07:20:00,
2013-03-26 03:30:00,32.0,26.5,29.54,NW,315,0.0,1.0,80,0.00,,BKN055,0.00,VWS V14.01,2013-03-26 07:30:00,
2013-03-26 03:40:00,32.0,27.4,29.54,NE,45,0.0,2.0,83,0.00,,BKN055,0.00,VWS V14.01,2013-03-26 07:40:00,
2013-03-26 03:50:00,32.0,27.7,29.55,NNW,337,0.0,2.0,84,0.00,,BKN055,0.00,VWS V14.01,2013-03-26 07:50:00,
2013-03-26 04:00:00,31.0,26.7,29.55,NNW,337,0.0,0.0,84,0.00,,BKN055,0.00,VWS V14.01,2013-03-26 08:00:00,
2013-03-26 04:10:00,31.0,27.0,29.55,NE,45,0.0,1.0,85,0.00,,BKN055,0.00,VWS V14.01,2013-03-26 08:10:00,
2013-03-26 04:19:00,31.0,27.0,29.55,North,360,1.0,2.0,85,0.00,,BKN055,0.00,VWS V14.01,2013-03-26 08:19:00,
2013-03-26 04:20:00,31.0,27.3,29.55,North,360,0.0,2.0,86,0.00,,BKN055,0.00,VWS V14.01,2013-03-26 08:20:00,
2013-03-26 04:21:00,31.0,27.3,29.55,WNW,292,0.0,1.0,86,0.00,,BKN055,0.00,VWS V14.01,2013-03-26 08:21:00,
2013-03-26 04:22:00,31.0,27.3,29.55,WNW,292,0.0,1.0,86,0.00,,BKN080,0.00,VWS V14.01,2013-03-26 08:22:00,
2013-03-26 04:23:00,31.0,27.3,29.55,NNE,22,1.0,2.0,86,0.00,,BKN080,0.00,VWS V14.01,2013-03-26 08:23:00,
2013-03-26 04:24:00,31.0,27.6,29.55,NNE,22,0.0,2.0,87,0.00,,BKN080,0.00,VWS V14.01,2013-03-26 08:24:00,
2013-03-26 04:30:00,31.0,27.3,29.56,NNW,337,0.0,3.0,86,0.00,,SCT070,0.00,VWS V14.01,2013-03-26 08:30:00,
2013-03-26 04:40:00,31.0,27.0,29.56,NE,45,0.0,4.0,85,0.00,,SCT070,0.00,VWS V14.01,2013-03-26 08:40:00,
2013-03-26 04:50:00,32.0,27.7,29.57,North,360,1.0,2.0,84,0.00,,SCT070,0.00,VWS V14.01,2013-03-26 08:50:00,
2013-03-26 05:21:00,31.0,27.3,29.55,WNW,292,1.0,1.0,86,0.00,,BKN080,0.00,VWS V14.01,2013-03-26 09:21:00,
2013-03-26 05:22:00,31.0,27.3,29.55,WNW,292,0.0,1.0,86,0.00,,BKN080,0.00,VWS V14.01,2013-03-26 09:22:00,
2013-03-26 05:24:00,31.0,27.6,29.55,NNE,22,0.0,2.0,87,0.00,,BKN080,0.00,VWS V14.01,2013-03-26 09:24:00,
2013-03-26 05:26:00,31.0,27.6,29.56,NW,315,0.0,3.0,87,0.00,,BKN080,0.00,VWS V14.01,2013-03-26 09:26:00,
2013-03-26 05:27:00,31.0,27.3,29.56,NW,315,0.0,3.0,86,0.00,,BKN080,0.00,VWS V14.01,2013-03-26 09:27:00,
2013-03-26 05:29:00,31.0,27.3,29.56,NNW,337,0.0,0.0,86,0.00,,BKN080,0.00,VWS V14.01,2013-03-26 09:29:00,
2013-03-26 05:32:00,31.0,27.3,29.56,NNW,337,0.0,4.0,86,0.00,,BKN080,0.00,VWS V14.01,2013-03-26 09:32:00,
2013-03-26 05:34:00,31.0,27.3,29.56,North,360,0.0,4.0,86,0.00,,BKN080,0.00,VWS V14.01,2013-03-26 09:34:00,
2013-03-26 05:37:00,31.0,27.0,29.56,NE,45,0.0,4.0,85,0.00,,SCT070,0.00,VWS V14.01,2013-03-26 09:37:00,
2013-03-26 05:39:00,31.0,27.0,29.56,NE,45,0.0,0.0,85,0.00,,SCT070,0.00,VWS V14.01,2013-03-26 09:39:00,
2013-03-26 05:42:00,31.0,27.0,29.56,NNE,22,2.0,2.0,85,0.00,,SCT070,0.00,VWS V14.01,2013-03-26 09:42:00,
2013-03-26 05:44:00,32.0,27.7,29.56,NE,45,0.0,2.0,84,0.00,,SCT070,0.00,VWS V14.01,2013-03-26 09:44:00,
2013-03-26 05:47:00,32.0,27.7,29.57,NNE,22,0.0,2.0,84,0.00,,SCT070,0.00,VWS V14.01,2013-03-26 09:47:00,
2013-03-26 05:48:00,32.0,27.7,29.57,NNE,22,0.0,2.0,84,0.00,,SCT070,0.00,VWS V14.01,2013-03-26 09:48:00,
2013-03-26 05:49:00,32.0,27.7,29.57,North,360,0.0,1.0,84,0.00,,SCT070,0.00,VWS V14.01,2013-03-26 09:49:00,
2013-03-26 17:50:00,46.0,19.2,29.71,North,360,1.0,5.0,34,0.00,,SCT070,0.00,VWS V14.01,2013-03-26 21:50:00,
2013-03-26 18:00:00,45.0,19.7,29.71,NW,315,1.0,1.0,36,0.00,,SCT070,0.00,VWS V14.01,2013-03-26 22:00:00,
2013-03-26 18:10:00,44.0,18.8,29.71,NNW,337,0.0,1.0,36,0.00,,SCT070,0.00,VWS V14.01,2013-03-26 22:10:00,
2013-03-26 18:30:00,43.0,19.1,29.72,WNW,292,0.0,0.0,38,0.00,,SCT070,0.00,VWS V14.01,2013-03-26 22:30:00,
2013-03-26 18:47:00,42.0,18.9,29.72,WNW,292,0.0,0.0,39,0.00,,SCT070,0.00,VWS V14.01,2013-03-26 22:47:00,
2013-03-26 18:48:00,42.0,18.9,29.72,WNW,292,0.0,0.0,39,0.00,,SCT070,0.00,VWS V14.01,2013-03-26 22:48:00,
2013-03-26 18:49:00,42.0,18.2,29.72,WNW,292,0.0,0.0,38,0.00,,SCT070,0.00,VWS V14.01,2013-03-26 22:49:00,
2013-03-26 18:50:00,42.0,18.2,29.72,WNW,292,0.0,0.0,38,0.00,,SCT070,0.00,VWS V14.01,2013-03-26 22:50:00,
2013-03-26 19:44:00,43.0,19.1,29.72,WNW,292,0.0,0.0,38,0.00,,SCT070,0.00,VWS V14.01,2013-03-26 23:44:00,
2013-03-26 19:49:00,42.0,18.2,29.72,WNW,292,0.0,0.0,38,0.00,,SCT070,0.00,VWS V14.01,2013-03-26 23:49:00,
2013-03-26 19:50:00,42.0,18.9,29.72,WNW,292,0.0,0.0,39,0.00,,SCT070,0.00,VWS V14.01,2013-03-26 23:50:00,
2013-03-26 19:54:00,42.0,19.5,29.72,WNW,292,0.0,0.0,40,0.00,,CLR,0.00,VWS V14.01,2013-03-26 23:54:00,
2013-03-26 19:55:00,42.0,18.9,29.72,WNW,292,0.0,0.0,39,0.00,,CLR,0.00,VWS V14.01,2013-03-26 23:55:00,
2013-03-26 19:59:00,41.0,18.5,29.72,WNW,292,0.0,0.0,40,0.00,,CLR,0.00,VWS V14.01,2013-03-26 23:59:00,
2013-03-26 20:00:00,41.0,18.5,29.72,WNW,292,0.0,0.0,40,0.00,,CLR,0.00,VWS V14.01,2013-03-27 00:00:00,
2013-03-26 20:01:00,41.0,18.5,29.72,WNW,292,0.0,0.0,40,0.00,,CLR,0.00,VWS V14.01,2013-03-27 00:01:00,
2013-03-26 20:04:00,41.0,19.1,29.72,WNW,292,0.0,0.0,41,0.00,,CLR,0.00,VWS V14.01,2013-03-27 00:04:00,
2013-03-26 20:05:00,41.0,19.1,29.72,WNW,292,0.0,0.0,41,0.00,,CLR,0.00,VWS V14.01,2013-03-27 00:05:00,
2013-03-26 20:06:00,41.0,19.1,29.72,WNW,292,0.0,0.0,41,0.00,,CLR,0.00,VWS V14.01,2013-03-27 00:06:00,
2013-03-26 20:10:00,40.0,18.8,29.72,WNW,292,0.0,0.0,42,0.00,,CLR,0.00,VWS V14.01,2013-03-27 00:10:00,
2013-03-26 20:12:00,40.0,18.2,29.72,WNW,292,0.0,1.0,41,0.00,,CLR,0.00,VWS V14.01,2013-03-27 00:12:00,
2013-03-26 20:15:00,40.0,18.8,29.72,WNW,292,0.0,1.0,42,0.00,,CLR,0.00,VWS V14.01,2013-03-27 00:15:00,
2013-03-26 20:17:00,40.0,18.8,29.72,WNW,292,0.0,1.0,42,0.00,,CLR,0.00,VWS V14.01,2013-03-27 00:17:00,
2013-03-26 20:20:00,40.0,18.8,29.72,WNW,292,0.0,0.0,42,0.00,,CLR,0.00,VWS V14.01,2013-03-27 00:20:00,
2013-03-26 20:22:00,40.0,19.3,29.72,WNW,292,0.0,0.0,43,0.00,,CLR,0.00,VWS V14.01,2013-03-27 00:22:00,
2013-03-26 20:25:00,40.0,19.3,29.72,WNW,292,0.0,0.0,43,0.00,,CLR,0.00,VWS V14.01,2013-03-27 00:25:00,
2013-03-26 20:27:00,39.0,18.4,29.72,WNW,292,0.0,0.0,43,0.00,,CLR,0.00,VWS V14.01,2013-03-27 00:27:00,
2013-03-26 20:30:00,39.0,18.4,29.72,WNW,292,0.0,0.0,43,0.00,,CLR,0.00,VWS V14.01,2013-03-27 00:30:00,
2013-03-26 20:31:00,39.0,18.4,29.72,WNW,292,0.0,0.0,43,0.00,,CLR,0.00,VWS V14.01,2013-03-27 00:31:00,
2013-03-26 20:32:00,39.0,18.4,29.72,WNW,292,0.0,0.0,43,0.00,,CLR,0.00,VWS V14.01,2013-03-27 00:32:00,
2013-03-26 20:35:00,39.0,18.4,29.72,NW,315,0.0,0.0,43,0.00,,CLR,0.00,VWS V14.01,2013-03-27 00:35:00,
2013-03-26 20:36:00,40.0,19.3,29.72,NW,315,0.0,0.0,43,0.00,,CLR,0.00,VWS V14.01,2013-03-27 00:36:00,
2013-03-26 20:37:00,39.0,18.4,29.72,NW,315,0.0,0.0,43,0.00,,CLR,0.00,VWS V14.01,2013-03-27 00:37:00,
2013-03-26 20:40:00,39.0,19.0,29.72,NNW,337,0.0,1.0,44,0.00,,CLR,0.00,VWS V14.01,2013-03-27 00:40:00,
2013-03-26 20:41:00,39.0,19.0,29.72,NNW,337,0.0,1.0,44,0.00,,CLR,0.00,VWS V14.01,2013-03-27 00:41:00,
2013-03-26 20:42:00,39.0,19.0,29.72,NNW,337,0.0,1.0,44,0.00,,CLR,0.00,VWS V14.01,2013-03-27 00:42:00,
2013-03-26 20:45:00,39.0,20.5,29.72,NNW,337,0.0,1.0,47,0.00,,CLR,0.00,VWS V14.01,2013-03-27 00:45:00,
2013-03-26 20:46:00,39.0,19.5,29.73,NNW,337,0.0,1.0,45,0.00,,CLR,0.00,VWS V14.01,2013-03-27 00:46:00,
2013-03-26 20:47:00,39.0,20.0,29.73,NNW,337,0.0,1.0,46,0.00,,CLR,0.00,VWS V14.01,2013-03-27 00:47:00,
2013-03-26 20:50:00,39.0,19.0,29.73,NNW,337,0.0,0.0,44,0.00,,CLR,0.00,VWS V14.01,2013-03-27 00:50:00,
2013-03-26 20:51:00,39.0,19.0,29.73,NNW,337,0.0,0.0,44,0.00,,CLR,0.00,VWS V14.01,2013-03-27 00:51:00,
2013-03-26 20:52:00,39.0,19.5,29.73,NNW,337,0.0,0.0,45,0.00,,CLR,0.00,VWS V14.01,2013-03-27 00:52:00,
2013-03-26 20:56:00,39.0,19.5,29.73,NNW,337,0.0,0.0,45,0.00,,CLR,0.00,VWS V14.01,2013-03-27 00:56:00,
2013-03-26 20:57:00,38.0,19.1,29.73,NNW,337,0.0,0.0,46,0.00,,CLR,0.00,VWS V14.01,2013-03-27 00:57:00,
2013-03-26 21:00:00,35.0,21.3,29.74,NW,315,0.0,2.0,57,0.00,,CLR,0.00,VWS V14.01,2013-03-27 01:00:00,
2013-03-26 21:10:00,36.0,21.0,29.74,WNW,292,2.0,2.0,54,0.00,,CLR,0.00,VWS V14.01,2013-03-27 01:10:00,
2013-03-26 21:20:00,37.0,21.0,29.74,NNW,337,0.0,2.0,52,0.00,,CLR,0.00,VWS V14.01,2013-03-27 01:20:00,
2013-03-26 21:30:00,38.0,22.0,29.75,NW,315,0.0,2.0,52,0.00,,CLR,0.00,VWS V14.01,2013-03-27 01:30:00,
2013-03-26 21:40:00,38.0,21.5,29.74,NNW,337,0.0,3.0,51,0.00,,CLR,0.00,VWS V14.01,2013-03-27 01:40:00,
2013-03-26 21:50:00,38.0,22.0,29.74,North,360,0.0,2.0,52,0.00,,CLR,0.00,VWS V14.01,2013-03-27 01:50:00,
2013-03-26 22:00:00,38.0,22.0,29.74,NW,315,0.0,2.0,52,0.00,,CLR,0.00,VWS V14.01,2013-03-27 02:00:00,
2013-03-26 22:10:00,37.0,21.0,29.75,NW,315,0.0,2.0,52,0.00,,CLR,0.00,VWS V14.01,2013-03-27 02:10:00,
2013-03-26 22:20:00,37.0,21.5,29.75,NNW,337,0.0,4.0,53,0.00,,CLR,0.00,VWS V14.01,2013-03-27 02:20:00,
2013-03-26 22:30:00,37.0,21.5,29.75,NNE,22,0.0,2.0,53,0.00,,CLR,0.00,VWS V14.01,2013-03-27 02:30:00,
2013-03-26 22:40:00,36.0,21.0,29.75,WNW,292,0.0,1.0,54,0.00,,CLR,0.00,VWS V14.01,2013-03-27 02:40:00,
2013-03-26 22:50:00,36.0,21.8,29.75,NW,315,0.0,2.0,56,0.00,,CLR,0.00,VWS V14.01,2013-03-27 02:50:00,
2013-03-26 23:00:00,36.0,22.3,29.75,NW,315,0.0,2.0,57,0.00,,CLR,0.00,VWS V14.01,2013-03-27 03:00:00,
2013-03-26 23:10:00,36.0,22.7,29.75,NW,315,0.0,2.0,58,0.00,,CLR,0.00,VWS V14.01,2013-03-27 03:10:00,
2013-03-26 23:20:00,36.0,22.7,29.74,NW,315,2.0,7.0,58,0.00,,CLR,0.00,VWS V14.01,2013-03-27 03:20:00,
2013-03-26 23:30:00,36.0,23.1,29.75,NW,315,0.0,3.0,59,0.00,,CLR,0.00,VWS V14.01,2013-03-27 03:30:00,
2013-03-26 23:40:00,36.0,23.1,29.75,NNW,337,0.0,4.0,59,0.00,,CLR,0.00,VWS V14.01,2013-03-27 03:40:00,
2013-03-26 23:50:00,36.0,23.5,29.75,NNW,337,0.0,2.0,60,0.00,,CLR,0.00,VWS V14.01,2013-03-27 03:50:00,